Location: *
(32.3758°S, 63.1185°E)
Time: 17:25:12
(UTC+00:00)

USA 281 - Pass Details

Date: 02 June 2023
Orbit: 1079 x 1080 km, 106.0° (Epoch: 10 September)

Event Time Altitude Azimuth Distance (km) Brightness Sun altitude
Exits shadow 14:58:33 25° 168° (SSE) 2,060 4.5 -26.6°
Drops below altitude 10° 15:01:24 10° 184° (S) 2,944 5.4 -27.2°
Sets 15:04:06 0° 192° (SSW) 3,906 6.2 -27.7°
